McAllen, TX

9:33 PM CDT on September 23, 2017 (GMT -0500)
McAllen Miller International

Weather History for KMFE - January, 2014

Change the Weather History Date:

Sunday, January 12, 2014

  Actual Average Record
Temperature  
Mean Temperature 65 °F 60 °F  
Max Temperature 79 °F 71 °F 89 °F (1989)
Min Temperature 51 °F 50 °F 13 °F (1962)
Degree Days  
Heating Degree Days 0 6  
Month to date heating degree days 101 83  
Since 1 July heating degree days 466 320  
Cooling Degree Days 0 2  
Month to date cooling degree days 11 24  
Year to date cooling degree days 11 24  
Growing Degree Days 15 (Base 50)    
Moisture  
Dew Point 60 °F    
Average Humidity 79    
Maximum Humidity 96    
Minimum Humidity 62    
Precipitation  
Precipitation 0.03 in 0.04 in 0.55 in (1977)
Month to date precipitation 0.04 0.40  
Year to date precipitation 0.04 0.40  
Sea Level Pressure  
Sea Level Pressure 30.03 in    
Wind  
Wind Speed 7 mph (SSE)    
Max Wind Speed 25 mph    
Max Gust Speed 31 mph    
Visibility 10 miles    
Events Rain    
T = Trace of Precipitation, MM = Missing Value Source: NWS Daily Summary

Daily Weather History Graph

Daily Weather History Graph

Search for Another Location

Airport or City:

Trip Planner

Search our weather history database for the weather conditions in past years. The results will help you decide how hot, cold, wet, or windy it might be!

Date:

Astronomy

Jan. 12, 2014 Rise Set
Actual Time 7:22 AM CST 6:00 PM CST
Civil Twilight 6:57 AM CST 6:25 PM CST
Nautical Twilight 6:28 AM CST 6:54 PM CST
Astronomical Twilight 6:00 AM CST 7:22 PM CST
Moon 3:27 PM CST (1/12) 4:24 AM CST (1/12)
Length of Visible Light 11h 28m
Length of Day
10h 38m
Waxing Gibbous, 90% of the Moon is Illuminated
Jan 12
Waxing Gibbous
Jan 15
Full
Jan 23
Last Quarter
Jan 30
New
Feb 6
First Quarter

Hourly Weather History & Observations

Time (CST) Temp. Dew Point Humidity Pressure Visibility Wind Dir Wind Speed Gust Speed Precip Events Conditions
12:53 AM 55.0 °F 50.0 °F 83% 30.13 in 10.0 mi Calm Calm - N/A   Clear
1:53 AM 54.0 °F 50.0 °F 86% 30.12 in 8.0 mi Calm Calm - N/A   Clear
2:53 AM 53.1 °F 50.0 °F 89% 30.11 in 8.0 mi NNW 3.5 mph - N/A   Clear
3:53 AM 53.1 °F 50.0 °F 89% 30.11 in 10.0 mi Calm Calm - N/A   Clear
4:53 AM 53.1 °F 50.0 °F 89% 30.10 in 10.0 mi Calm Calm - N/A   Clear
5:53 AM 52.0 °F 48.9 °F 89% 30.10 in 10.0 mi Calm Calm - N/A   Clear
6:53 AM 52.0 °F 50.0 °F 93% 30.11 in 10.0 mi Calm Calm - N/A   Partly Cloudy
7:26 AM 53.6 °F 51.8 °F 94% 30.11 in 10.0 mi Calm Calm - N/A   Mostly Cloudy
7:53 AM 54.0 °F 52.0 °F 93% 30.10 in 9.0 mi Calm Calm - N/A   Scattered Clouds
8:43 AM 60.8 °F 57.2 °F 88% 30.12 in 10.0 mi Calm Calm - N/A   Mostly Cloudy
8:53 AM 62.1 °F 57.9 °F 86% 30.12 in 10.0 mi SSE 3.5 mph - N/A   Overcast
9:26 AM 62.6 °F 57.2 °F 82% 30.13 in 10.0 mi Calm Calm - N/A   Scattered Clouds
9:53 AM 62.1 °F 57.0 °F 84% 30.11 in 10.0 mi ESE 11.5 mph - N/A   Partly Cloudy
10:41 AM 66.2 °F 60.8 °F 83% 30.12 in 10.0 mi Variable 4.6 mph - 0.00 in   Mostly Cloudy
10:50 AM 66.2 °F 60.8 °F 83% 30.12 in 10.0 mi WSW 3.5 mph - 0.00 in   Partly Cloudy
10:53 AM 68.0 °F 61.0 °F 78% 30.12 in 9.0 mi SW 3.5 mph - 0.00 in   Partly Cloudy
11:37 AM 69.8 °F 62.6 °F 78% 30.10 in 10.0 mi Variable 3.5 mph - N/A   Mostly Cloudy
11:53 AM 69.1 °F 62.1 °F 78% 30.08 in 10.0 mi ESE 6.9 mph - N/A   Scattered Clouds
12:53 PM 73.9 °F 64.0 °F 71% 30.04 in 10.0 mi ESE 4.6 mph - 0.00 in   Clear
1:53 PM 75.0 °F 64.9 °F 71% 29.98 in 10.0 mi SE 11.5 mph - N/A   Scattered Clouds
2:02 PM 77.0 °F 64.4 °F 65% 29.98 in 10.0 mi SE 12.7 mph 20.7 mph N/A   Mostly Cloudy
2:53 PM 78.1 °F 64.9 °F 64% 29.94 in 10.0 mi SE 17.3 mph - N/A   Mostly Cloudy
3:53 PM 75.9 °F 64.0 °F 67% 29.96 in 10.0 mi SSE 15.0 mph - N/A   Mostly Cloudy
4:02 PM 75.2 °F 64.4 °F 69% 29.96 in 10.0 mi SSE 15.0 mph 21.9 mph N/A   Scattered Clouds
4:53 PM 73.0 °F 64.9 °F 76% 29.98 in 10.0 mi SSE 6.9 mph - 0.00 in Rain Light Rain
5:01 PM 71.6 °F 66.2 °F 83% 29.98 in 10.0 mi SSE 9.2 mph - 0.00 in Rain Light Rain
5:53 PM 71.1 °F 66.9 °F 87% 29.98 in 10.0 mi SSE 9.2 mph - 0.01 in   Scattered Clouds
6:53 PM 69.1 °F 66.0 °F 90% 29.96 in 10.0 mi SE 10.4 mph - 0.02 in Rain Light Rain
7:53 PM 69.1 °F 66.0 °F 90% 29.97 in 10.0 mi SSE 16.1 mph - 0.00 in Rain Light Rain
8:53 PM 69.1 °F 66.9 °F 93% 29.91 in 10.0 mi SE 17.3 mph 31.1 mph 0.00 in   Scattered Clouds
9:50 PM 69.8 °F 66.2 °F 88% 29.93 in 10.0 mi SSE 17.3 mph 27.6 mph N/A   Partly Cloudy
9:53 PM 70.0 °F 66.9 °F 90% 29.93 in 10.0 mi SSE 15.0 mph 27.6 mph N/A   Scattered Clouds
10:11 PM 69.8 °F 66.2 °F 88% 29.95 in 10.0 mi SSE 12.7 mph 20.7 mph N/A   Mostly Cloudy
10:53 PM 70.0 °F 66.9 °F 90% 29.94 in 10.0 mi SSE 13.8 mph - N/A   Mostly Cloudy
11:37 PM 68.0 °F 66.2 °F 94% 29.93 in 10.0 mi South 8.1 mph - N/A   Scattered Clouds
11:53 PM 68.0 °F 66.0 °F 93% 29.92 in 10.0 mi South 10.4 mph - N/A   Scattered Clouds